Temperature
13 13 13 13 13 13 13 13 13 13 14 14 14 14 14 14 14 14 14 14 14 14 14 14 15 15 15 15 15 15 15 15 15 15 15 15 15 15 15 15 15 15 15
12 12 13 13 13 13 13 13 13 13 13 13 13 13 14 14 14 14 14 14 14 14 14 14 14 14 14 15 15 15 15 15 15 15 15 15 15 15 15 15 15 15 15
12 12 12 13 13 13 13 13 13 13 13 13 13 13 13 14 14 14 14 14 14 14 14 14 14 14 14 14 14 15 15 15 14 14 14 14 15 15 15 15 15 15 15
12 12 12 12 13 12 12 13 13 13 13 13 13 13 13 13 13 14 14 14 14 14 14 14 14 14 14 14 14 14 14 14 14 14 14 14 14 14 14 14 14 14 15
11 12 12 12 12 12 12 12 13 13 13 13 13 13 13 13 13 13 13 13 14 14 14 14 14 14 14 14 14 14 14 14 14 14 14 14 14 14 14 14 14 14 14
11 11 12 12 12 12 12 12 12 12 12 13 13 13 13 13 13 13 13 13 13 13 13 13 13 13 13 14 14 14 14 13 13 13 13 13 14 14 14 14 14 14 14
11 11 11 11 12 12 12 12 12 12 12 12 12 12 12 12 12 13 13 13 13 13 13 13 13 13 13 13 13 13 13 13 13 13 13 13 13 14 14 14 14 14 14
11 11 11 11 11 11 11 12 12 12 12 12 12 12 12 12 12 12 12 12 12 12 12 13 13 13 13 13 13 13 13 13 13 13 13 13 13 13 13 14 14 14 14
10 10 11 11 11 11 11 11 11 11 11 11 11 11 11 11 11 11 12 12 12 12 12 12 12 12 12 12 12 12 12 13 13 12 12 13 13 13 13 13 13 13 13
10 10 10 10 10 10 10 11 11 11 11 11 11 11 11 11 11 11 11 11 11 12 12 12 12 12 12 12 12 12 12 12 12 12 12 12 12 13 13 13 13 13 13
10 10 10 10 10 10 10 10 10 10 10 10 10 10 10 10 10 10 10 11 11 11 11 11 11 11 12 12 12 12 12 12 12 12 12 12 12 12 12 12 13 13 13
9 9 9 9 9 10 10 10 10 10 10 10 10 10 10 10 10 10 10 10 10 11 11 11 11 11 11 11 11 11 11 11 11 11 11 12 12 12 12 12 12 12 12
9 9 9 9 9 9 9 9 9 9 9 9 9 9 9 9 9 9 10 10 10 10 10 10 10 11 11 11 11 11 11 11 11 11 11 11 11 11 12 12 12 12 12
8 8 8 9 9 9 9 9 9 9 9 9 9 9 9 9 9 9 9 9 9 9 10 10 10 10 10 10 10 10 10 10 10 11 11 11 11 11 11 11 12 11 11
8 8 8 8 8 8 8 8 8 8 8 8 8 8 8 8 8 8 8 8 8 9 9 9 9 9 9 9 10 10 10 10 10 10 10 10 10 11 11 11 11 11 11
7 7 7 7 7 8 8 8 7 7 7 8 8 8 8 8 8 8 8 8 8 8 8 8 8 8 8 9 9 9 9 9 9 9 9 10 10 10 10 10 11 11 11
7 7 7 7 7 7 7 7 7 7 7 7 7 7 7 7 7 7 7 7 7 7 7 7 8 8 8 8 8 8 8 9 9 9 9 9 9 9 10 10 10 10 10
6 6 6 6 7 6 6 6 6 6 6 6 6 6 6 6 7 7 7 7 7 7 7 7 7 7 7 7 7 8 8 8 8 8 8 8 9 9 9 9 9 9 9
5 6 6 6 6 6 6 6 6 6 6 6 6 6 6 6 6 6 6 6 6 6 6 6 6 6 6 6 7 7 7 7 7 7 7 8 8 8 8 8 8 8 9
5 5 5 5 5 5 5 5 5 5 5 5 5 5 5 5 5 5 5 5 5 5 5 5 5 5 5 6 6 6 6 6 6 6 7 7 7 7 7 8 8 8 8
4 4 4 5 5 5 5 5 5 5 5 5 5 5 5 5 4 4 4 4 4 4 4 4 4 5 5 5 5 5 6 6 6 6 6 6 6 6 6 7 7 7 7
4 4 4 4 4 4 4 4 4 4 4 4 4 4 4 4 4 4 3 4 4 4 4 4 4 4 4 4 4 4 4 4 5 5 5 5 5 5 6 6 6 6 6
3 3 3 3 3 4 4 4 4 3 3 3 3 3 3 3 3 3 3 3 3 3 3 3 3 3 3 3 3 3 3 3 3 4 4 4 4 5 5 5 5 5 6
3 3 3 3 3 3 3 3 3 3 3 2 2 2 2 2 2 2 2 2 2 2 2 2 2 2 2 2 2 2 2 2 2 2 3 4 4 4 4 4 4 5 5
2 2 2 2 2 2 2 2 2 2 2 2 2 2 2 2 2 2 1 1 1 1 1 1 1 1 1 1 1 1 2 2 2 1 2 2 3 3 3 3 4 4 4
1 1 1 1 2 2 2 2 2 2 1 1 1 1 1 1 1 1 1 1 1 1 1 1 1 1 1 1 1 1 1 1 1 1 1 1 2 2 3 3 3 3 3
Wind_Speed
4 8 10 11 11 13 13 13 14 14 14 14 14 13 13 14 14 14 13 13 13 12 12 12 13 12 12 13 13 13 13 12 12 12 12 12 12 11 12 11 12 12 13
4 9 10 11 12 13 13 14 14 14 14 14 14 14 14 14 14 14 13 13 13 13 13 12 12 12 12 12 12 12 12 11 10 10 10 11 12 11 11 12 12 11 13
6 10 11 11 12 13 13 14 14 14 14 14 14 14 14 14 14 14 14 13 13 13 13 13 12 12 12 12 11 11 11 10 9 8 7 8 11 11 11 12 12 11 12
9 11 11 12 13 13 13 13 13 13 14 14 14 14 14 14 14 14 13 13 13 13 13 12 12 12 12 11 10 10 10 9 9 8 6 9 9 10 10 10 10 10 10
10 12 12 13 13 13 13 13 13 13 13 14 14 14 13 14 13 13 13 13 13 13 12 12 12 12 11 11 10 10 9 9 9 7 8 10 9 9 9 9 9 9 9
10 13 12 13 13 13 13 13 12 12 12 13 13 13 13 13 13 13 13 13 12 12 11 11 11 11 11 10 10 9 9 9 9 7 8 9 9 9 9 9 9 9 8
9 11 12 12 12 13 13 13 12 12 12 12 12 12 12 13 13 13 13 13 12 11 11 11 10 10 10 9 9 8 8 9 7 6 8 9 9 8 8 8 8 8 8
9 11 11 12 12 12 13 13 12 12 12 11 11 11 12 12 12 12 12 12 12 12 12 11 10 10 9 8 8 8 9 9 7 6 7 8 8 7 7 7 7 6 7
10 10 10 11 11 11 12 13 13 12 12 12 12 11 11 11 11 11 11 12 12 12 12 12 11 10 9 8 8 8 9 9 8 5 6 7 6 6 6 6 6 6 6
8 8 9 9 9 9 10 11 12 12 12 11 11 11 10 10 10 10 11 11 11 11 11 11 11 10 9 8 8 8 9 9 7 7 7 7 6 5 5 5 5 4 4
7 7 8 9 10 9 8 9 9 11 11 10 10 9 9 9 9 9 10 11 11 11 10 11 10 10 9 8 8 8 8 6 8 7 7 7 6 5 4 4 3 3 3
5 5 7 8 9 9 8 8 8 8 9 10 10 10 8 8 9 8 8 9 9 10 10 10 9 9 9 8 7 7 7 7 7 7 7 7 6 5 4 3 3 2 2
4 5 5 6 7 8 7 7 7 8 8 9 11 11 9 9 8 8 7 7 8 8 9 9 9 8 8 8 7 7 8 7 6 6 6 6 5 5 4 4 3 2 1
5 5 5 6 6 7 7 6 7 7 7 8 9 11 10 8 8 7 6 7 7 7 8 8 7 8 8 7 7 7 8 7 6 5 5 4 4 4 4 4 3 3 1
5 4 4 4 5 6 6 6 7 7 8 8 8 9 10 7 6 7 6 7 8 8 7 7 7 7 7 7 6 7 6 7 7 6 4 4 4 4 4 3 3 2 2
4 4 3 4 5 5 5 5 6 6 7 8 8 9 9 8 7 6 6 6 7 8 7 7 7 6 6 6 5 6 6 7 6 6 5 4 3 3 3 3 3 3 2
4 3 3 3 4 4 4 4 5 6 7 7 7 9 9 9 8 7 5 6 7 8 8 6 6 6 5 5 4 5 5 6 6 6 6 5 4 3 2 3 3 3 2
4 4 3 3 3 4 4 4 5 6 6 6 7 8 9 10 9 7 5 5 8 8 7 5 3 3 4 4 4 4 4 5 5 6 6 5 4 3 3 3 3 3 3
4 4 3 3 3 3 3 4 4 5 6 6 7 7 8 9 10 8 6 6 8 7 6 5 3 3 4 4 4 4 3 3 3 5 4 5 5 4 3 3 3 3 4
4 4 3 3 2 2 2 2 2 3 4 6 6 7 8 9 9 8 6 7 7 4 3 4 4 3 3 4 5 4 3 3 2 2 3 4 4 4 4 3 3 4 5
4 4 3 3 2 2 1 1 1 2 2 3 5 6 8 8 8 8 6 6 6 3 3 4 3 3 3 3 3 4 4 3 2 1 2 3 3 4 4 3 3 3 4
4 3 3 2 2 2 1 1 1 1 1 1 3 5 7 8 8 7 7 5 5 4 4 4 4 3 3 3 2 3 3 3 2 3 2 2 3 4 4 4 3 3 4
4 3 2 2 2 2 2 2 1 1 1 1 2 2 5 6 7 7 7 6 5 4 3 4 3 3 3 3 2 1 2 2 4 2 3 2 2 3 3 4 3 3 3
4 3 3 2 2 2 2 2 1 1 1 1 1 1 2 5 6 6 6 6 5 4 4 4 4 3 3 3 3 2 2 2 2 3 3 3 3 4 3 4 4 4 4
5 4 3 3 2 2 2 1 1 1 0 1 1 1 1 3 4 5 5 5 5 4 4 4 4 3 2 3 3 3 4 4 3 4 5 5 4 3 3 4 3 3 4
5 4 3 3 2 2 2 1 1 1 0 1 1 1 1 1 2 4 5 5 5 5 4 4 4 4 3 4 4 3 3 3 3 4 5 6 6 5 5 4 3 3 4
Wind_Direction
47 59 54 48 50 50 52 52 51 50 50 51 51 50 50 50 48 48 47 47 48 47 49 51 51 50 50 52 50 49 48 47 50 53 55 60 62 65 65 66 73 75 81
53 69 63 56 56 54 55 54 52 50 49 48 49 51 51 50 49 48 48 47 47 47 47 48 47 46 48 51 50 48 45 41 43 47 50 61 62 64 66 66 72 77 81
59 71 66 59 62 57 55 53 52 50 49 48 49 50 50 49 48 47 47 46 45 45 45 45 44 43 44 47 47 46 41 34 28 27 43 72 67 63 65 69 74 75 79
65 67 62 61 63 59 56 55 52 50 50 50 49 49 48 47 46 45 45 45 44 43 42 43 42 41 42 44 44 41 34 24 12 16 48 66 66 64 65 66 72 74 76
67 67 61 61 61 59 57 55 53 50 50 51 49 48 49 47 46 44 44 43 42 40 41 41 40 40 39 39 40 35 25 12 4 22 44 61 62 64 65 66 69 71 75
66 67 61 61 59 58 57 54 54 54 52 50 49 49 49 49 48 45 43 42 42 38 36 36 36 36 35 33 32 28 17 5 355 17 50 61 60 64 65 66 68 68 70
68 68 63 60 59 57 55 54 55 57 55 50 48 49 48 47 47 44 41 41 41 38 34 31 31 32 32 28 23 17 8 356 353 18 57 65 61 61 63 64 66 66 66
67 66 63 60 62 59 54 53 53 53 52 50 48 48 47 45 45 42 40 40 38 36 33 29 28 27 28 23 18 10 1 356 2 16 52 63 61 58 59 59 60 62 66
65 65 61 56 58 59 57 53 53 52 50 49 46 44 45 43 41 39 37 37 35 32 30 27 25 24 23 20 14 3 356 354 352 10 48 60 58 53 53 57 58 59 61
61 56 53 53 53 54 56 55 55 51 49 49 46 41 38 37 36 37 34 31 30 28 26 23 20 19 17 13 6 356 352 353 2 19 43 59 59 49 44 47 48 55 58
61 50 46 43 42 44 53 54 55 51 44 42 39 37 36 31 29 33 30 29 26 24 21 18 15 13 9 4 359 353 350 0 19 19 37 51 52 42 33 33 35 42 57
62 52 45 41 36 34 40 48 48 50 43 38 32 28 28 29 27 30 25 25 21 18 15 13 10 7 3 360 1 357 354 11 24 20 33 39 35 28 23 21 23 29 48
77 57 47 45 40 37 36 44 45 47 44 38 32 25 23 29 28 28 22 20 12 13 10 8 6 2 1 5 3 359 0 12 19 17 27 34 26 15 12 10 8 10 22
83 67 50 45 45 39 37 41 47 44 43 41 34 29 25 22 18 16 20 14 12 11 8 4 1 358 359 359 355 0 3 6 3 7 20 26 17 6 357 347 350 348 338
90 75 57 47 48 43 40 38 46 42 38 40 35 31 27 25 15 10 12 13 12 9 7 356 355 357 354 354 351 359 1 358 354 1 8 8 4 355 349 345 331 329 329
100 91 69 55 50 52 50 46 47 47 44 42 38 30 24 23 18 12 9 10 10 5 1 355 355 350 347 350 349 356 355 350 346 356 359 354 347 339 334 334 332 327 315
109 99 84 71 53 54 54 50 53 51 48 43 39 33 25 22 16 13 9 5 2 357 354 355 355 353 355 354 348 349 351 346 349 354 358 355 344 323 329 322 321 323 314
107 95 79 68 56 54 53 54 54 51 48 45 42 35 23 19 13 11 9 2 358 356 354 351 1 357 352 348 340 338 340 344 342 346 350 353 354 345 322 306 310 310 303
107 100 86 67 63 54 67 71 67 60 50 45 44 38 25 18 14 11 3 1 359 356 355 355 0 357 347 344 332 326 333 338 331 334 339 346 349 347 351 320 309 311 304
110 106 98 83 69 58 78 84 78 66 53 48 44 34 29 21 15 8 2 1 0 356 353 352 345 346 343 335 329 326 314 300 313 325 334 341 347 343 341 339 330 304 293
112 111 110 95 68 53 62 76 70 53 41 38 38 35 29 22 14 9 1 0 358 353 344 343 339 335 335 336 334 324 306 280 273 330 4 348 344 339 334 341 328 312 299
137 132 127 114 98 66 42 48 92 102 81 74 39 35 27 19 15 9 5 360 357 353 347 348 348 334 329 351 334 323 320 311 325 325 318 314 348 352 337 318 302 301 301
153 152 151 132 102 80 54 47 57 75 55 39 33 34 23 15 13 12 3 357 353 355 344 338 340 340 324 325 340 324 319 300 316 284 287 299 331 322 326 325 310 289 284
159 150 141 131 111 98 88 77 82 98 57 9 46 29 18 15 9 4 5 355 348 348 342 336 345 327 321 312 311 299 279 284 297 303 296 303 308 304 301 315 311 300 285
149 146 141 127 114 103 90 86 53 49 66 22 37 23 6 9 7 360 359 351 343 342 340 337 332 320 306 295 294 297 294 284 265 275 286 293 304 294 293 291 288 291 289
141 139 139 137 128 114 107 87 92 64 38 11 359 342 332 339 353 353 352 351 344 338 332 325 321 312 300 289 285 283 281 279 276 274 276 286 291 294 291 280 274 277 278
Height
1541 1541 1541 1540 1540 1540 1540 1540 1540 1540 1540 1540 1540 1540 1540 1540 1540 1540 1540 1540 1540 1540 1541 1541 1540 1540 1540 1540 1540 1540 1540 1540 1541 1541 1541 1541 1541 1541 1541 1542 1542 1542 1543
1541 1541 1540 1541 1541 1541 1541 1541 1541 1541 1541 1540 1541 1541 1541 1541 1541 1541 1541 1541 1541 1541 1541 1541 1541 1541 1541 1541 1541 1541 1542 1542 1542 1542 1542 1542 1543 1543 1543 1543 1544 1544 1544
1541 1541 1540 1541 1541 1541 1541 1541 1541 1541 1541 1541 1541 1541 1541 1541 1541 1541 1541 1541 1541 1541 1541 1541 1541 1541 1542 1542 1542 1542 1543 1543 1543 1543 1544 1544 1544 1544 1545 1545 1545 1545 1546
1540 1540 1541 1541 1541 1541 1541 1541 1542 1542 1541 1541 1542 1542 1541 1541 1541 1541 1541 1541 1541 1542 1542 1542 1542 1542 1542 1542 1543 1543 1543 1544 1544 1544 1545 1545 1545 1545 1546 1546 1546 1547 1547
1540 1540 1541 1541 1541 1541 1541 1541 1542 1542 1542 1542 1542 1542 1542 1541 1541 1541 1541 1541 1541 1541 1542 1542 1542 1542 1542 1542 1543 1543 1544 1544 1544 1545 1545 1545 1546 1546 1546 1547 1547 1547 1548
1540 1540 1541 1541 1541 1541 1541 1542 1542 1542 1542 1542 1542 1542 1542 1541 1541 1541 1541 1541 1541 1541 1541 1542 1542 1542 1542 1542 1543 1543 1544 1544 1545 1545 1545 1546 1546 1546 1547 1547 1548 1548 1548
1540 1540 1540 1541 1541 1541 1541 1542 1542 1542 1542 1542 1542 1542 1541 1541 1541 1541 1541 1541 1541 1541 1541 1541 1541 1542 1542 1542 1542 1543 1544 1544 1545 1545 1545 1546 1546 1547 1547 1547 1548 1548 1548
1539 1540 1540 1540 1541 1541 1541 1542 1542 1542 1542 1542 1541 1541 1541 1541 1541 1541 1541 1541 1541 1541 1541 1541 1541 1541 1541 1542 1542 1543 1543 1544 1544 1545 1545 1545 1546 1546 1547 1547 1548 1548 1549
1539 1539 1540 1540 1540 1541 1541 1541 1541 1541 1541 1541 1541 1541 1541 1541 1541 1540 1540 1540 1540 1540 1540 1540 1541 1541 1541 1541 1542 1542 1543 1543 1544 1544 1545 1545 1545 1546 1546 1547 1547 1548 1548
1538 1539 1539 1539 1540 1540 1541 1541 1541 1541 1541 1541 1540 1540 1540 1540 1540 1540 1540 1540 1539 1539 1539 1540 1540 1540 1540 1541 1541 1542 1542 1543 1543 1543 1544 1544 1544 1545 1545 1546 1547 1547 1548
1538 1538 1539 1539 1539 1540 1540 1540 1540 1540 1540 1540 1540 1540 1539 1539 1539 1539 1539 1539 1539 1538 1538 1539 1539 1539 1539 1539 1540 1540 1541 1541 1542 1542 1542 1543 1543 1544 1544 1545 1545 1546 1546
1537 1538 1538 1538 1539 1539 1539 1539 1539 1540 1539 1539 1539 1539 1539 1539 1538 1538 1538 1538 1538 1537 1537 1537 1537 1538 1538 1538 1538 1539 1539 1540 1540 1541 1541 1541 1542 1542 1542 1543 1543 1544 1545
1536 1537 1537 1538 1538 1538 1538 1538 1539 1539 1539 1539 1539 1538 1538 1538 1537 1537 1537 1537 1536 1536 1536 1536 1536 1536 1536 1537 1537 1537 1538 1538 1538 1539 1539 1540 1540 1540 1541 1541 1542 1542 1543
1535 1536 1536 1537 1537 1537 1538 1538 1538 1538 1537 1538 1537 1537 1537 1537 1536 1536 1536 1535 1535 1534 1534 1534 1534 1534 1535 1535 1535 1535 1536 1536 1536 1537 1537 1538 1538 1538 1538 1539 1539 1540 1541
1534 1534 1535 1536 1536 1536 1536 1537 1537 1537 1537 1536 1536 1536 1536 1536 1535 1535 1534 1534 1534 1533 1533 1532 1532 1532 1532 1533 1533 1533 1533 1534 1534 1534 1534 1535 1535 1536 1536 1536 1537 1537 1538
1532 1533 1534 1534 1535 1535 1535 1536 1536 1536 1536 1535 1535 1535 1535 1535 1534 1534 1533 1533 1532 1532 1531 1531 1530 1530 1530 1531 1531 1531 1531 1531 1531 1532 1532 1532 1532 1533 1533 1533 1534 1534 1535
1530 1531 1532 1533 1533 1534 1534 1534 1534 1535 1534 1534 1534 1534 1533 1533 1533 1532 1532 1531 1531 1530 1530 1529 1529 1528 1528 1528 1528 1528 1528 1528 1528 1529 1529 1529 1529 1529 1530 1530 1531 1531 1532
1528 1529 1530 1531 1532 1532 1533 1533 1533 1533 1533 1533 1533 1532 1532 1531 1531 1530 1530 1530 1529 1528 1528 1527 1526 1526 1526 1526 1525 1525 1525 1525 1525 1526 1526 1526 1526 1526 1527 1527 1527 1528 1529
1526 1527 1528 1529 1530 1531 1531 1531 1532 1532 1532 1531 1531 1531 1530 1530 1529 1528 1528 1527 1527 1526 1526 1525 1525 1524 1523 1523 1523 1522 1522 1522 1522 1523 1523 1523 1523 1523 1523 1524 1524 1525 1526
1524 1525 1526 1527 1528 1529 1529 1530 1530 1530 1530 1530 1529 1529 1528 1528 1527 1526 1526 1525 1525 1524 1524 1523 1523 1522 1522 1521 1520 1519 1519 1519 1519 1519 1520 1520 1520 1520 1520 1521 1521 1521 1522
1522 1523 1523 1524 1525 1526 1527 1527 1528 1527 1527 1527 1527 1527 1526 1526 1525 1524 1524 1523 1523 1522 1522 1521 1520 1520 1519 1519 1518 1516 1516 1516 1516 1516 1517 1517 1517 1517 1517 1517 1517 1518 1518
1519 1520 1521 1522 1523 1524 1524 1525 1525 1526 1525 1525 1525 1525 1524 1524 1523 1523 1522 1521 1520 1520 1519 1519 1518 1517 1517 1517 1516 1514 1513 1513 1513 1513 1513 1513 1513 1514 1514 1514 1514 1514 1514
1516 1517 1518 1519 1520 1521 1522 1523 1523 1523 1523 1523 1523 1522 1522 1521 1520 1520 1520 1519 1518 1518 1517 1516 1516 1515 1514 1514 1515 1515 1513 1511 1509 1508 1509 1509 1509 1509 1510 1510 1510 1510 1510
1513 1515 1516 1517 1518 1519 1519 1520 1520 1520 1520 1520 1520 1519 1519 1519 1518 1518 1517 1516 1516 1515 1515 1514 1513 1513 1512 1512 1512 1512 1513 1511 1510 1506 1505 1506 1506 1506 1506 1506 1505 1505 1506
1511 1512 1514 1515 1516 1516 1517 1517 1517 1518 1518 1518 1517 1517 1517 1516 1516 1515 1515 1514 1513 1513 1512 1511 1511 1510 1510 1509 1509 1508 1508 1508 1507 1506 1502 1500 1501 1501 1501 1501 1501 1501 1501
1509 1510 1511 1512 1513 1514 1514 1515 1515 1515 1515 1515 1514 1514 1514 1513 1513 1512 1512 1511 1510 1510 1509 1508 1508 1507 1506 1506 1505 1505 1505 1504 1503 1502 1499 1497 1496 1496 1496 1496 1496 1496 1497